Location: Avelin
(50.5397°N, 3.0822°E)
Time: 13:41:34
(UTC+00:00)

Daily predictions for brighter satellites

Satellite Brightness Start Highest point End
(mag) Time Altitude Azimuth Time Altitude Azimuth Time Altitude Azimuth
CSL-04 Rocket 4.4 19:47:46 10° S 19:53:11 56° W 19:58:34 10° NNW
Cosmos 1833 Rocket 2.7 19:47:54 10° SSW 19:53:28 75° ESE 19:59:06 10° NNE
CZ-4B DEB 4.4 19:48:07 10° SSE 19:53:38 82° WSW 19:59:13 10° NNW
ATLAS 2AS CENTAUR R/B 2.8 19:47:43 10° SW 19:54:42 88° NW 20:01:34 10° NE
CZ-4B R/B 3.3 19:50:28 10° SSE 19:56:06 79° ENE 20:01:45 10° NNW
Cosmos 1892 Rocket 4.3 19:53:15 10° N 19:57:17 36° ENE 20:01:16 10° SE
Okean-O 3.2 19:53:59 10° SE 19:58:05 41° ENE 20:02:13 10° N
Ariane Rocket 4.5 19:54:21 10° ESE 19:58:15 23° ENE 20:02:09 10° N
Cosmos 2360 Rocket 4.4 19:56:18 10° N 19:59:36 15° NNE 20:02:52 10° ENE
USA 305 3.1 19:56:52 10° WNW 20:00:54 59° NNE 20:04:42 10° E
Gbstr 26 Del rocket 3.3 19:56:24 10° WNW 20:01:49 78° SSW 20:06:13 10° ESE
Cosmos 1455 Rocket 3.9 19:58:20 10° SSE 20:02:13 31° E 20:06:08 10° NNE
SL-4 R/B 3.1 19:58:57 10° W 20:02:21 31° SSW 20:05:48 10° SSE
Spot 2 Rocket 3.7 19:58:54 10° SE 20:03:46 55° ENE 20:08:41 10° N
MetOp-B 4.2 19:58:42 10° SSE 20:04:03 89° WSW 20:09:28 10° NNW
Cosmos 2084 Rocket 4.5 20:02:51 10° NW 20:06:45 37° NNE 20:10:42 10° ESE
Cosmos 2016 Rocket 4.5 20:01:31 10° SSE 20:07:20 42° E 20:13:08 10° NNE
Cosmos 2173 Rocket 4.0 20:03:07 10° S 20:09:11 70° E 20:15:23 10° NNE
Okean 1 Rocket 3.1 20:04:52 10° S 20:09:13 68° E 20:13:37 10° NNE
ADEOS 3.6 20:04:37 10° SSE 20:09:50 89° WSW 20:15:06 10° NNW
Helios 1A Rocket 2.4 20:11:47 10° NNE 20:14:58 78° WNW 20:18:06 10° SSW
Cosmos 2219 Rocket 4.5 20:13:25 10° N 20:16:20 14° NNE 20:19:16 10° ENE
Meteor 1-27 4.5 20:17:33 10° SSE 20:22:59 49° E 20:28:22 10° NNE
SKYMED 3 4.3 20:20:39 10° NNE 20:24:36 86° ESE 20:28:33 10° SSW
ERS-1 Rocket 3.7 20:19:52 10° S 20:24:45 53° W 20:29:41 10° NNW
SJ 16-02 4.3 20:25:43 10° W 20:26:43 11° W 20:27:42 10° WSW
ATLAS 3B R/B 3.3 20:19:58 10° NW 20:27:39 62° WSW 20:34:51 10° SSE
Cosmos 2369 4.1 20:22:28 10° NNW 20:28:04 53° NE 20:33:06 13° SE
Cosmos 2322 Rocket 4.0 20:24:10 10° NNW 20:28:22 21° NE 20:32:33 10° E
DEBRIS 3.2 20:28:25 10° SW 20:31:08 53° SSE 20:38:15 10° ENE
Cosmos 1741 Rocket 4.2 20:26:04 10° NNW 20:31:23 77° WSW 20:36:40 10° SSE
Cosmos 1452 Rocket 3.5 20:26:45 10° S 20:31:52 59° ESE 20:37:01 10° NNE
Cosmos 2082 Rocket 2.8 20:26:47 10° S 20:31:54 35° ESE 20:37:01 10° NE
SL-08 R/B 3.3 20:28:05 10° NNE 20:32:59 83° ESE 20:37:45 10° SSW
Cosmos 968 Rocket 4.5 20:31:48 10° NW 20:36:47 44° WSW 20:41:43 10° S
Sich 1 Rocket 3.8 20:32:28 10° SSW 20:36:49 74° WNW 20:41:12 10° N
Cosmos 1331 Rocket 4.0 20:33:30 10° SSW 20:38:45 90° WNW 20:44:00 10° NNE
Cosmos 1802 Rocket 4.0 20:32:37 10° S 20:38:49 80° E 20:45:00 10° NNE
YAOGAN 11 4.1 20:35:01 10° NNE 20:39:24 65° ESE 20:43:49 10° S
CZ-4B R/B 3.8 20:36:55 14° SE 20:40:45 48° ENE 20:45:23 10° N
Cosmos 1302 Rocket 4.2 20:43:10 10° S 20:48:09 51° ESE 20:53:10 10° NNE
Cosmos 1697 Rocket 4.1 20:44:52 10° NW 20:49:49 33° WSW 20:54:45 10° SSW
CZ-2C R/B 3.1 20:49:47 20° ESE 20:50:59 28° ENE 20:53:27 10° N
Cosmos 2151 4.0 20:47:42 10° N 20:51:24 31° ENE 20:53:43 18° ESE
Meteor 2-12 Rocket 4.4 20:45:56 10° N 20:52:03 84° E 20:57:39 13° SSE
Terra 3.4 20:48:55 10° SSW 20:53:07 32° W 20:57:21 10° NNW
NOSS 3-3 (A) 4.2 20:49:35 10° S 20:54:13 35° ESE 20:59:37 10° NE
Cosmos 1459 Rocket 4.5 20:49:16 10° SSW 20:55:27 63° WNW 21:01:35 10° N
SL-16 R/B 3.0 20:50:54 10° NNW 20:56:16 41° NE 21:00:34 15° ESE
COSMOS 2406 4.2 20:54:43 16° SSE 20:58:04 28° ESE 21:02:52 10° NE
Cosmos 1743 3.2 20:57:55 10° NNW 21:00:48 41° W 21:03:16 13° SSW
Cosmos 2228 2.8 20:58:22 11° S 21:02:21 79° E 21:06:29 10° NNE
USA 306 4.0 21:00:14 10° SSW 21:00:59 14° SSW 21:00:59 14° SSW
USA 186 2.8 21:00:42 13° SSW 21:02:44 33° W 21:05:16 10° NNW
Cosmos 1782 2.5 21:00:50 10° SSW 21:04:20 79° W 21:07:53 10° N
SPOT 3 Rocket 3.5 21:02:10 16° SSE 21:06:18 89° WSW 21:11:29 10° NNW
Cosmos 44 Rocket 3.6 21:05:40 10° SW 21:10:45 79° NW 21:15:59 10° NE
Cosmos 2333 Rocket 2.9 21:06:13 10° NNW 21:11:42 46° NE 21:15:41 18° ESE
Cosmos 1626 Rocket 3.6 21:07:44 10° N 21:12:05 67° ENE 21:14:41 23° SSE
CZ-4B R/B 2.6 21:13:30 23° S 21:15:28 67° WSW 21:18:51 10° NNW
Cosmos 1607 3.9 21:09:22 10° SSW 21:15:29 71° SE 21:21:45 10° NE
Cosmos 1980 Rocket 3.1 21:13:14 10° NW 21:18:34 42° WSW 21:23:04 14° S
Okean O Rocket 3.0 21:16:18 10° SSW 21:20:09 32° W 21:24:02 10° NNW
ISS -3.8 21:17:36 10° SW 21:20:52 57° SSE 21:24:11 10° ENE
Cosmos 2233 Rocket 4.1 21:15:29 10° SSW 21:21:42 80° W 21:27:55 10° N
Helios 1B rocket 4.1 21:21:08 14° E 21:22:27 17° ENE 21:24:49 10° NNE
NOSS 3-3 (C) 4.0 21:17:42 10° SSW 21:22:38 45° ESE 21:28:29 10° NE
USA 305 2.8 21:22:20 10° WNW 21:26:19 53° SW 21:27:30 35° SSE
Cosmos 1933 3.6 21:27:24 32° SE 21:28:40 45° E 21:32:20 10° NNE
IRS-1C Rocket 4.2 21:25:22 20° S 21:29:04 74° WSW 21:34:22 10° NNW
Geosat 4.4 21:25:40 10° NE 21:30:25 41° ESE 21:32:49 25° SSE
Tsikada Rocket 4.4 21:25:13 10° NNW 21:31:17 59° W 21:36:32 14° SSW
Okean-O 4.5 21:30:53 10° SSW 21:34:31 25° W 21:38:09 10° NW
NOSS 3-4 (A) 4.1 21:29:49 10° NW 21:36:12 59° NE 21:42:12 17° ESE
Ariane Rocket 3.3 21:33:21 21° S 21:36:42 64° WSW 21:41:45 10° NNW
NOSS 3-4 (C) 4.2 21:30:25 10° NW 21:36:49 59° NE 21:42:52 16° ESE
Cosmos 2098 Rocket 3.9 21:34:55 28° SE 21:36:59 41° E 21:41:17 10° NNE
CZ-4C R/B 2.7 21:33:42 10° WSW 21:38:02 53° NW 21:43:40 10° NE
Nadezhda 4 Rocket 4.3 21:32:40 10° N 21:38:39 52° ENE 21:42:00 26° SE
Cosmos 2360 Rocket 2.8 21:39:32 10° NNW 21:45:03 48° NE 21:48:24 22° ESE
Cosmos 2084 Rocket 4.0 21:41:34 10° NW 21:45:34 44° SW 21:47:04 31° S
ATLAS 2AS CENTAUR R/B 4.3 21:40:08 10° W 21:46:25 36° NNW 21:52:37 10° NE
Gbstr 26 Del rocket 4.3 21:43:40 10° W 21:47:33 25° SW 21:48:34 22° SSW
Cosmos 1461 4.0 21:50:45 23° E 21:50:45 23° E 21:52:51 10° ENE
Cosmos 1437 Rocket 2.3 21:48:46 43° S 21:49:48 78° E 21:53:23 10° NNE
Cosmos 1544 Rocket 3.6 21:49:36 23° SSW 21:52:14 75° W 21:56:35 10° N
BREEZE-M R/B 4.4 21:44:24 10° W 21:54:13 88° N 21:59:54 10° E
USA 234 3.9 21:50:27 10° ENE 21:56:07 30° SE 21:57:36 28° SSE
Cosmos 2219 Rocket 3.0 21:56:29 10° NNW 22:01:52 42° NE 22:05:13 21° ESE
Cosmos 1805 2.6 22:01:37 10° N 22:04:54 89° ENE 22:05:16 69° SSE
DNEPR-1 R/B 4.3 21:59:33 10° NW 22:04:54 78° NE 22:08:22 28° SE
BREEZE-M DEB (TANK) 3.4 22:04:00 10° WSW 22:04:53 18° WSW 22:04:53 18° WSW
Cosmos 1777 Rocket 4.0 22:03:44 10° NNW 22:08:59 72° ENE 22:11:10 35° SE
Cosmos 1503 Rocket 4.3 22:04:58 10° NNW 22:10:08 59° ENE 22:12:20 33° SE
Cosmos 1992 Rocket 4.4 22:05:19 11° SW 22:10:23 64° WNW 22:15:35 10° NNE
Cosmos 909 Rocket 4.2 22:04:39 10° SW 22:10:58 77° NW 22:17:33 10° NE
Cosmos 1766 4.4 22:09:37 10° NNE 22:12:18 23° ENE 22:12:23 23° ENE
Cosmos 2322 Rocket 2.2 22:07:40 10° NNW 22:13:21 77° ENE 22:15:56 34° SE
Cosmos 1536 4.1 22:12:15 10° NNE 22:15:18 24° ENE 22:15:51 23° E
Cosmos 2082 Rocket 3.1 22:10:17 10° SW 22:15:49 49° NW 22:21:22 10° NNE
Cosmos 1354 Rocket 4.5 22:15:51 10° NNW 22:21:00 52° ENE 22:23:15 31° ESE
Cosmos 1464 Rocket 3.9 22:18:25 29° S 22:21:46 89° E 22:27:58 10° N
CZ-2C R/B 4.4 22:21:24 14° WSW 22:21:51 14° W 22:23:28 10° WNW
Cosmos 1486 Rocket 4.0 22:16:47 10° NNW 22:22:04 82° WSW 22:24:02 40° SSE
SeaSat 1 4.5 22:18:47 10° E 22:22:28 22° NE 22:26:09 10° N
Cosmos 1825 Rocket 3.4 22:18:09 10° N 22:22:30 87° W 22:23:40 49° S
Cosmos 1375 Rocket 4.5 22:18:44 19° SSW 22:23:34 73° SE 22:30:09 10° NE
Cosmos 1953 Rocket 3.7 22:20:35 10° N 22:24:56 60° ENE 22:25:57 46° SE
Meteor 1-5 Rocket 4.3 22:19:58 10° NNW 22:25:37 72° W 22:28:14 34° S
Cosmos 2151 4.4 22:24:33 10° NNW 22:28:06 28° W 22:29:47 21° SW
ALOS 2 3.5 22:27:20 31° ESE 22:28:38 39° ENE 22:32:44 10° N
ARIANE 5 R/B 3.2 22:27:36 36° ESE 22:28:52 47° ENE 22:33:08 10° N
Cosmos 2058 Rocket 3.9 22:28:26 33° ESE 22:28:55 34° E 22:32:51 10° NNE
COSMOS 2428 4.3 22:24:18 10° NNW 22:29:14 28° NE 22:33:44 12° E
Spot 4 4.3 22:28:39 35° ESE 22:30:14 50° ENE 22:34:52 10° N
Cosmos 220 Rocket 3.7 22:29:24 52° SSW 22:30:21 88° ESE 22:34:28 10° NNE
Cosmos 2278 3.9 22:27:56 10° NW 22:33:35 60° WSW 22:35:41 37° S
CSL-04 DEB 3.8 22:34:56 75° SSE 22:35:13 90° W 22:38:50 10° NNW
SL-16 R/B 2.9 22:35:04 10° NW 22:40:24 43° WSW 22:42:24 31° SSW
COSMOS 2406 3.7 22:36:39 12° SW 22:41:59 60° NW 22:47:41 10° NNE
Cosmos 1092 Rocket 4.0 22:36:57 10° N 22:43:07 75° ENE 22:45:38 38° SSE
Helios 1A 3.1 22:39:27 10° N 22:43:20 63° WNW 22:44:23 44° SW
SAR-Lupe-2 4.4 22:44:30 36° ENE 22:44:34 36° ENE 22:47:40 10° N
NOSS 3-3 (A) 4.4 22:39:24 10° WSW 22:44:42 57° NW 22:51:08 10° NE
PSLV R/B 4.4 22:42:58 10° NNE 22:46:49 33° E 22:47:01 33° ESE
CZ-2C R/B 3.7 22:45:01 10° NNE 22:49:24 61° ESE 22:50:07 53° SE
ACS3 Solar Sail 3.9 22:49:03 10° ENE 22:50:22 11° ENE 22:51:41 10° E
Aureole 1 Rocket 4.1 22:45:42 10° NNW 22:50:56 60° ENE 22:53:46 32° SE
Cosmos-2242 2.8 22:51:19 60° SE 22:51:44 65° E 22:55:50 10° NNE
Okean 1 3.4 22:53:46 51° WSW 22:54:09 54° WNW 22:57:40 10° N
Helios 1B rocket 2.6 22:55:06 44° WSW 22:55:08 44° W 22:58:32 10° NNW
Cosmos 2333 Rocket 3.1 22:50:43 10° NW 22:55:55 37° WSW 22:57:41 30° SW
Cosmos 2034 Rocket 4.1 22:53:27 33° SSW 22:56:33 78° W 23:02:57 10° N
ISS -3.5 22:54:20 10° W 22:57:24 66° NW 22:57:24 66° NW
Cosmos 1271 Rocket 4.1 22:58:25 23° ENE 22:58:25 23° ENE 23:00:38 10° NE
CZ-2C R/B 3.8 22:56:33 23° ESE 22:59:03 34° ENE 23:03:44 10° N
Cosmos 1975 3.9 22:58:30 10° N 23:01:47 30° ENE 23:02:05 29° E
Cosmos 1707 3.2 23:02:42 40° NNE 23:02:42 40° NNE 23:04:40 10° NNE
Cosmos 1833 4.1 23:04:37 44° S 23:06:22 70° ESE 23:11:59 10° NNE
Meteor 2-2 Rocket 4.2 23:09:39 44° S 23:11:32 84° E 23:17:18 10° NNE
Cosmos 468 Rocket 4.3 23:11:08 44° SE 23:12:04 49° ESE 23:17:08 10° NNE
Cosmos 2221 3.3 23:14:13 35° E 23:14:25 35° E 23:18:14 10° NNE
Cosmos 2322 4.1 23:13:13 10° NNW 23:18:52 58° NE 23:21:36 30° ESE
Cosmos 2297 Rocket 4.0 23:18:41 15° ESE 23:19:34 15° E 23:22:43 10° ENE
Cosmos 540 Rocket 3.4 23:18:15 47° SSW 23:19:47 88° WNW 23:24:58 10° NNE
Cosmos 1634 Rocket 3.9 23:22:44 40° SSW 23:25:08 83° W 23:31:23 10° N
Cosmos 1461 3.7 23:24:21 27° W 23:25:51 40° NW 23:29:21 10° NNE
NOSS 3-4 (A) 4.3 23:20:42 10° NW 23:27:08 46° WSW 23:29:36 35° SSW
TSX-5 3.9 23:24:24 10° NNW 23:27:09 50° NNE 23:27:09 50° NNE
Cosmos 2279 Rocket 4.0 23:25:15 42° S 23:27:30 76° E 23:33:46 10° NNE
CZ-4C R/B 4.5 23:23:17 10° WNW 23:27:34 25° N 23:32:50 10° NE
NOSS 3-4 (C) 4.2 23:21:18 10° NW 23:27:46 47° WSW 23:30:15 36° SSW
Cosmos 1898 Rocket 3.7 23:23:38 10° NNW 23:28:47 64° ENE 23:30:35 39° SE
Cosmos 2360 Rocket 3.0 23:23:47 10° NW 23:28:54 35° WSW 23:30:08 32° SW
RESURS DK-1 3.1 23:27:20 10° NNW 23:31:11 44° NE 23:32:11 36° E
USA 290 3.5 23:35:47 33° WNW 23:35:49 33° WNW 23:38:44 10° N
NOSS 0 Rocket 4.3 23:33:23 10° NNW 23:39:32 61° NE 23:43:09 25° SE
USA 234 3.1 23:33:09 10° ENE 23:39:44 83° SSE 23:44:54 18° SW
Meteor 1-11 Rocket 3.9 23:36:06 10° N 23:41:48 64° ENE 23:43:52 38° SE
Cosmos 2219 Rocket 2.8 23:40:32 10° NW 23:45:48 41° WSW 23:46:54 37° SW
ARGOS Delta rocket 4.2 23:41:00 10° N 23:45:57 66° WNW 23:47:34 42° SW
Cosmos 1763 Rocket 4.1 23:43:38 30° WSW 23:46:02 53° WNW 23:51:13 10° NNE
Cosmos 1812 Rocket 3.6 23:48:46 56° SE 23:49:16 61° E 23:53:38 10° NNE
Cosmos 1536 3.9 23:47:19 10° NNW 23:50:22 29° W 23:50:22 29° W
BREEZE-M DEB (TANK) 3.9 23:36:45 10° WSW 23:50:45 78° SSE 23:54:22 10° ENE
Intercosmos 24 4.2 23:51:06 10° N 23:55:25 52° ENE 23:55:56 48° ESE
Cosmos 1842 3.7 23:55:55 40° NW 23:55:55 40° NW 23:58:31 10° N
Cosmos 1470 3.3 23:52:45 10° NNW 23:55:21 40° WNW 23:55:21 40° WNW
